Simultaneous Nadir Overpasses (SNOs) Predictions

Prediction of SNOs between NOAA-15 and METOP-C Satellite Orbit:

Table of predicted SNOs for the next 14.0 days since TLE Epoch: 4/24/2020
Index Date (NOAA-15) Time (NOAA-15) Lat,Lon (NOAA-15) SZA (NOAA-15 ) Date (METOP-C) Time (METOP-C) Lat,Lon (METOP-C) SZA (METOP-C ) Distance(km) Time Diff (sec)
1 04/30/2020 03:22:44 -80.92, -15.43 112.21 04/30/2020 03:21:30 -80.91, -15.31 112.23 2.16 74
2 04/30/2020 04:13:12 80.91, 152.17 67.79 04/30/2020 04:12:11 80.91, 152.01 67.76 3.07 61
3 04/30/2020 05:03:46 -80.91, -40.50 112.22 04/30/2020 05:02:51 -80.92, -40.43 112.23 2.23 55
4 04/30/2020 05:54:15 80.91, 126.75 67.76 04/30/2020 05:53:32 80.92, 126.88 67.77 2.66 43
5 04/30/2020 06:44:49 -80.91, -65.92 112.25 04/30/2020 06:44:13 -80.92, -65.92 112.27 0.29 36
6 04/30/2020 07:35:18 80.92, 101.32 67.73 04/30/2020 07:34:54 80.92, 101.40 67.73 1.57 24
7 04/30/2020 08:25:52 -80.92, -91.34 112.28 04/30/2020 08:25:35 -80.91, -91.40 112.31 1.68 17
8 04/30/2020 09:16:20 80.91, 76.25 67.72 04/30/2020 09:16:15 80.93, 76.27 67.74 1.68 5
9 04/30/2020 10:06:54 -80.91,-116.41 112.29 04/30/2020 10:06:56 -80.92,-116.52 112.30 2.17 2
10 04/30/2020 10:57:23 80.92, 50.82 67.69 04/30/2020 10:57:37 80.92, 50.79 67.69 0.52 14
11 04/30/2020 11:47:57 -80.92,-141.83 112.32 04/30/2020 11:48:18 -80.91,-142.00 112.34 3.13 21
12 04/30/2020 12:38:26 80.93, 25.39 67.66 04/30/2020 12:38:59 80.91, 25.31 67.65 2.31 33
13 04/30/2020 13:29:00 -80.93,-167.26 112.35 04/30/2020 13:29:39 -80.92,-167.13 112.33 2.32 39
14 04/30/2020 14:19:28 80.92, 0.32 67.65 04/30/2020 14:20:20 80.92, 0.18 67.66 2.52 52
15 04/30/2020 15:10:01 -80.92, 167.68 112.36 04/30/2020 15:10:59 -80.93, 167.75 112.32 2.10 58
16 04/30/2020 16:00:30 80.93, -25.11 67.62 04/30/2020 16:01:40 80.93, -24.94 67.67 2.98 70




NCC Satellite Simultaneous Nadir Overpasses (SNOs) Prediction Service
